Weather History for Sturgis, MI

Change the Weather History Date:

Wednesday, May 29, 2013

  Actual Average (KHAI) Record (KHAI)
Temperature  
Mean Temperature 71 °F -  
Max Temperature 80 °F 75 °F 91 °F (1977)
Min Temperature 62 °F 50 °F 32 °F (1966)
Cooling Degree Days 6    
Growing Degree Days 21 (Base 50)    
Moisture  
Dew Point 64 °F    
Average Humidity 77    
Maximum Humidity 94    
Minimum Humidity 61    
Precipitation  
Precipitation 0.00 in - - ()
Sea Level Pressure  
Sea Level Pressure 29.94 in    
Wind  
Wind Speed 11 mph (SW)    
Max Wind Speed 28 mph    
Max Gust Speed 44 mph    
Visibility 10 miles    
Events Rain    
Averages and records for this station are not official NWS values.
T = Trace of Precipitation, MM = Missing Value Source: NWS Daily Summary

Daily Weather History Graph

Daily Weather History Graph

Search for Another Location

Airport:

Trip Planner

Search our weather history database for the weather conditions in past years. The results will help you decide how hot, cold, wet, or windy it might be!

Date:

Astronomy

May. 29, 2013 Rise Set
Actual Time 6:10 AM EDT 9:08 PM EDT
Civil Twilight 5:37 AM EDT 9:41 PM EDT
Nautical Twilight 4:55 AM EDT 10:23 PM EDT
Astronomical Twilight 4:06 AM EDT 11:13 PM EDT
Moon 12:28 AM EDT (5/29) 11:11 AM EDT (5/29)
Length of Visible Light 16h 03m
Length of Day
14h 57m
Waning Gibbous, 73% of the Moon is Illuminated
May 29
Waning Gibbous
May 31
Last Quarter
Jun 8
New
Jun 16
First Quarter
Jun 23
Full

Hourly Weather History & Observations

Time (EDT) Temp. Heat Index Dew Point Humidity Pressure Visibility Wind Dir Wind Speed Gust Speed Precip Events Conditions
12:15 AM 71.6 °F - 64.4 °F 78% 29.89 in 10.0 mi West 27.6 mph 43.7 mph N/A Rain Light Rain
12:34 AM 66.2 °F - 62.6 °F 88% 29.88 in 10.0 mi SW 13.8 mph 26.5 mph N/A   Light Drizzle
12:55 AM 64.4 °F - 62.6 °F 94% 29.87 in 10.0 mi SSW 15.0 mph - N/A Rain Light Rain
1:15 AM 64.4 °F - 62.6 °F 94% 29.85 in 10.0 mi South 5.8 mph - N/A   Scattered Clouds
1:34 AM 64.4 °F - 62.6 °F 94% 29.88 in 10.0 mi SW 9.2 mph - N/A   Clear
1:55 AM 64.4 °F - 60.8 °F 88% 29.88 in 10.0 mi SW 5.8 mph - N/A   Clear
2:15 AM 64.4 °F - 60.8 °F 88% 29.88 in 10.0 mi Calm Calm - N/A   Clear
2:34 AM 62.6 °F - 60.8 °F 94% 29.89 in 10.0 mi Calm Calm - N/A   Clear
2:55 AM 62.6 °F - 60.8 °F 94% 29.88 in 10.0 mi Calm Calm - N/A   Clear
3:15 AM 62.6 °F - 60.8 °F 94% 29.87 in 10.0 mi Calm Calm - N/A   Clear
3:34 AM 64.4 °F - 62.6 °F 94% 29.87 in 10.0 mi SSW 5.8 mph - N/A   Scattered Clouds
3:55 AM 64.4 °F - 62.6 °F 94% 29.87 in 10.0 mi SSW 5.8 mph - N/A   Overcast
4:15 AM 64.4 °F - 62.6 °F 94% 29.87 in 10.0 mi SSW 6.9 mph - N/A   Scattered Clouds
4:34 AM 64.4 °F - 62.6 °F 94% 29.88 in 10.0 mi SSW 9.2 mph - N/A   Clear
4:55 AM 66.2 °F - 62.6 °F 88% 29.89 in 10.0 mi SW 10.4 mph - N/A   Clear
5:15 AM 66.2 °F - 64.4 °F 94% 29.89 in 10.0 mi SW 11.5 mph - N/A   Clear
5:35 AM 69.8 °F - 64.4 °F 83% 29.88 in 10.0 mi SW 17.3 mph 20.7 mph N/A Rain Light Rain
5:55 AM 68.0 °F - 64.4 °F 88% 29.87 in 10.0 mi SSW 13.8 mph - N/A Rain Light Rain
6:15 AM 68.0 °F - 64.4 °F 88% 29.87 in 10.0 mi SSW 12.7 mph - N/A   Clear
6:35 AM 68.0 °F - 64.4 °F 88% 29.87 in 10.0 mi SSW 10.4 mph 18.4 mph N/A   Clear
6:55 AM 69.8 °F - 64.4 °F 83% 29.87 in 10.0 mi SSW 13.8 mph 18.4 mph N/A   Clear
7:14 AM 69.8 °F - 64.4 °F 83% 29.90 in 10.0 mi SW 12.7 mph 20.7 mph N/A   Clear
7:35 AM 69.8 °F - 64.4 °F 83% 29.92 in 10.0 mi SW 17.3 mph - N/A   Clear
7:54 AM 69.8 °F - 64.4 °F 83% 29.93 in 10.0 mi SW 20.7 mph 33.4 mph N/A   Clear
8:15 AM 69.8 °F - 64.4 °F 83% 29.94 in 10.0 mi SW 13.8 mph 20.7 mph N/A   Clear
8:35 AM 69.8 °F - 64.4 °F 83% 29.94 in 10.0 mi SW 13.8 mph 20.7 mph N/A   Clear
8:55 AM 69.8 °F - 64.4 °F 83% 29.94 in 10.0 mi WSW 12.7 mph 18.4 mph N/A   Clear
9:15 AM 69.8 °F - 62.6 °F 78% 29.93 in 10.0 mi WSW 10.4 mph 16.1 mph N/A   Clear
9:34 AM 69.8 °F - 62.6 °F 78% 29.95 in 10.0 mi WSW 9.2 mph 16.1 mph N/A   Clear
9:55 AM 69.8 °F - 62.6 °F 78% 29.95 in 10.0 mi SW 10.4 mph - N/A   Clear
10:15 AM 71.6 °F - 64.4 °F 78% 29.95 in 10.0 mi SW 11.5 mph - N/A   Clear
10:34 AM 73.4 °F - 64.4 °F 73% 29.95 in 10.0 mi WSW 13.8 mph 19.6 mph N/A   Clear
10:55 AM 73.4 °F - 64.4 °F 73% 29.96 in 10.0 mi WSW 11.5 mph 19.6 mph N/A   Clear
11:15 AM 75.2 °F - 62.6 °F 65% 29.97 in 10.0 mi WSW 12.7 mph - N/A   Clear
11:35 AM 77.0 °F - 62.6 °F 61% 29.98 in 10.0 mi West 17.3 mph 23.0 mph N/A   Clear
11:55 AM 77.0 °F - 62.6 °F 61% 29.99 in 10.0 mi WSW 15.0 mph - N/A   Clear
12:15 PM 77.0 °F - 62.6 °F 61% 30.00 in 10.0 mi West 10.4 mph 19.6 mph N/A   Scattered Clouds
12:35 PM 78.8 °F - 64.4 °F 61% 30.00 in 10.0 mi WSW 15.0 mph 23.0 mph N/A   Scattered Clouds
12:55 PM 75.2 °F - 62.6 °F 65% 30.00 in 10.0 mi West 10.4 mph 18.4 mph N/A   Scattered Clouds
1:14 PM 75.2 °F - 64.4 °F 69% 30.00 in 10.0 mi WSW 6.9 mph - N/A   Scattered Clouds
1:35 PM 73.4 °F - 64.4 °F 73% 30.01 in 10.0 mi West 3.5 mph - N/A   Overcast
1:55 PM 73.4 °F - 64.4 °F 73% 30.01 in 10.0 mi WSW 6.9 mph - N/A   Overcast
2:14 PM 73.4 °F - 64.4 °F 73% 30.01 in 10.0 mi West 5.8 mph - N/A   Mostly Cloudy
2:35 PM 75.2 °F - 66.2 °F 73% 30.00 in 10.0 mi WSW 4.6 mph - N/A   Scattered Clouds
2:55 PM 73.4 °F - 66.2 °F 78% 30.00 in 10.0 mi SW 6.9 mph - N/A   Mostly Cloudy
3:14 PM 75.2 °F - 68.0 °F 78% 30.00 in 10.0 mi WSW 5.8 mph - N/A   Mostly Cloudy
3:35 PM 75.2 °F - 68.0 °F 78% 30.00 in 10.0 mi SW 10.4 mph - N/A   Scattered Clouds
3:54 PM 77.0 °F - 68.0 °F 74% 30.00 in 10.0 mi SW 9.2 mph - N/A   Scattered Clouds
4:15 PM 78.8 °F - 68.0 °F 69% 29.99 in 10.0 mi SW 12.7 mph 16.1 mph N/A   Scattered Clouds
4:35 PM 80.6 °F 83.9 °F 69.8 °F 70% 29.98 in 10.0 mi WSW 5.8 mph 16.1 mph N/A   Scattered Clouds
4:55 PM 78.8 °F - 68.0 °F 69% 29.98 in 10.0 mi WSW 9.2 mph - N/A   Scattered Clouds
5:15 PM 78.8 °F - 66.2 °F 65% 29.97 in 10.0 mi SW 11.5 mph - N/A   Scattered Clouds
5:34 PM 80.6 °F 82.7 °F 66.2 °F 61% 29.97 in 10.0 mi SW 12.7 mph 20.7 mph N/A   Scattered Clouds
5:55 PM 78.8 °F - 66.2 °F 65% 29.97 in 10.0 mi SW 8.1 mph - N/A   Clear
6:14 PM 78.8 °F - 66.2 °F 65% 29.97 in 10.0 mi WSW 8.1 mph - N/A   Clear
6:35 PM 80.6 °F 82.7 °F 66.2 °F 61% 29.97 in 10.0 mi SW 10.4 mph - N/A   Clear
6:55 PM 78.8 °F - 66.2 °F 65% 29.96 in 10.0 mi SSW 10.4 mph 17.3 mph N/A   Scattered Clouds
7:14 PM 80.6 °F 82.7 °F 66.2 °F 61% 29.96 in 10.0 mi SSW 12.7 mph 17.3 mph N/A   Clear
7:35 PM 78.8 °F - 66.2 °F 65% 29.95 in 10.0 mi SSW 11.5 mph - N/A   Clear
7:55 PM 78.8 °F - 66.2 °F 65% 29.96 in 10.0 mi SSW 10.4 mph - N/A   Clear
8:14 PM 78.8 °F - 64.4 °F 61% 29.96 in 10.0 mi SSW 10.4 mph - N/A   Clear
8:35 PM 75.2 °F - 64.4 °F 69% 29.97 in 10.0 mi SSW 5.8 mph - N/A   Clear
8:55 PM 75.2 °F - 64.4 °F 69% 29.96 in 10.0 mi South 6.9 mph - N/A   Clear
9:14 PM 73.4 °F - 64.4 °F 73% 29.96 in 10.0 mi South 5.8 mph - N/A   Clear
9:35 PM 73.4 °F - 64.4 °F 73% 29.97 in 10.0 mi South 5.8 mph - N/A   Clear
9:55 PM 71.6 °F - 64.4 °F 78% 29.98 in 10.0 mi South 5.8 mph - N/A   Clear
10:14 PM 71.6 °F - 64.4 °F 78% 29.99 in 10.0 mi South 8.1 mph - N/A   Clear
10:35 PM 71.6 °F - 64.4 °F 78% 29.99 in 10.0 mi South 6.9 mph - N/A   Clear
10:55 PM 71.6 °F - 64.4 °F 78% 29.99 in 10.0 mi South 5.8 mph - N/A   Clear
11:14 PM 71.6 °F - 64.4 °F 78% 29.99 in 10.0 mi South 6.9 mph - N/A   Clear
11:35 PM 71.6 °F - 64.4 °F 78% 29.99 in 10.0 mi South 5.8 mph - N/A   Clear
11:54 PM 69.8 °F - 62.6 °F 78% 29.99 in 10.0 mi South 5.8 mph - N/A   Clear